Regional Weather Roundup
Issued by NWS

Home | Current Version | Previous Version | Graphics & Text | Print | Product List | Glossary On
Versions: 1 2 3 4 5 6 7 8 9 10 11 12 13 14 15 16 17 18 19 20 21 22 23 24 25 26 27 28 29 30 31 32 33 34 35 36 37 38 39 40 41 42 43 44 45 46 47 48 49 50
000
ASUS43 KOAX 200710
RWRNE

WEATHER ROUNDUP FOR NEBRASKA
NATIONAL WEATHER SERVICE OMAHA NE
200 AM CDT SAT SEP 20 2014

NOTES: SATELLITE DATA IS BEING USED TO AUGMENT CLOUD COVER ABOVE
       12000 FEET.
       "FAIR" INDICATES FEW OR NO CLOUDS BELOW 12,000 FEET WITH NO
       SIGNIFICANT WEATHER AND/OR OBSTRUCTIONS TO VISIBILITY.

  * THESE STATIONS DO NOT REPORT WEATHER SUCH AS RAIN...SNOW OR FOG.

NEZ001>004-019>022-054>056-200800-
NEBRASKA PANHANDLE

CITY           SKY/WX    TMP DP  RH WIND       PRES   REMARKS
SCOTTSBLUFF    CLEAR     60  51  72 SW6       30.01R
ALLIANCE       MOCLDY    59  52  77 N9        29.99R
CHADRON        PTCLDY    55  51  86 CALM      30.01R
KIMBALL        CLEAR     56  51  84 W8        30.02S
SIDNEY         PTCLDY    59  53  80 N7        30.00R
$$

NEZ057>060-069>072-079>082-200800-
SOUTHWEST NEBRASKA

CITY           SKY/WX    TMP DP  RH WIND       PRES   REMARKS
NORTH PLATTE   MOCLDY    71  61  70 S7        29.88R
IMPERIAL       CLOUDY    71  60  68 SW9       29.90S
LEXINGTON      PTCLDY    74  60  61 SW14G24   29.88R
MCCOOK         PTCLDY    71  60  68 S10       29.90R
OGALLALA       MOCLDY    65  58  78 CALM      29.91R
$$

NEZ005>010-023>029-035>040-094-200800-
NORTH CENTRAL NEBRASKA

CITY           SKY/WX    TMP DP  RH WIND       PRES   REMARKS
VALENTINE      PTCLDY    59  55  87 NW3       29.93R
AINSWORTH      CLEAR     59  55  84 CALM      29.91R
BROKEN BOW     CLOUDY    68  61  78 CALM      29.88R
O`NEILL        PTCLDY    66  59  78 N8        29.87S
ORD            CLOUDY    68  62  81 W3        29.84S
THEDFORD       PTCLDY    69  57  65 N3        29.93R
$$

NEZ041-046>049-061>064-073>077-083>087-200800-
SOUTH CENTRAL NEBRASKA

CITY           SKY/WX    TMP DP  RH WIND       PRES   REMARKS
GRAND ISLAND   PTCLDY    76  61  59 SW16G28   29.86R
AURORA         CLEAR     73  60  64 SW9       29.86R
HASTINGS       CLEAR     73  58  59 SW10      29.88R
HEBRON         CLEAR     72  62  69 SW9       29.89R
HOLDREGE       CLEAR     70  59  68 SW8       29.90R
KEARNEY *      PTCLDY    72  59  64 S14       29.88S
YORK           CLEAR     70  63  78 SW12      29.86R
$$

NEZ011>018-030>034-042>045-200800-
NORTHEAST NEBRASKA

CITY           SKY/WX    TMP DP  RH WIND       PRES   REMARKS
NORFOLK        MOCLDY    72  65  78 SW6       29.82S
ALBION         LGT RAIN  74  62  65 W8        29.85R
BLAIR          MOCLDY    73  67  81 S10       29.82R
COLUMBUS *     PTCLDY    73  63  68 SW6       29.85R
FREMONT        PTCLDY    75  66  74 W7        29.83R THUNDER
TEKAMAH        LGT RAIN  75  68  78 W5        29.83R
WAYNE          CLOUDY    67  64  91 NE3       29.81F
$$

NEZ050>053-065>068-078-088>093-200800-
SOUTHEAST NEBRASKA

CITY           SKY/WX    TMP DP  RH WIND       PRES   REMARKS
LINCOLN        CLEAR     74  66  76 SW13      29.85R
OMAHA EPPLEY   PTCLDY    74  67  78 S12       29.82R
BEATRICE       CLEAR     72  67  85 SW12      29.87R
FALLS CITY     CLEAR     70  67  90 S12G20    29.87S
NEBRASKA CITY    N/A     70  68  94 SW12      29.86R
PLATTSMOUTH    CLEAR     70  66  87 S10       29.84R
$$

NEZ044-045-051>053-067-200800-
OMAHA AREA

CITY           SKY/WX    TMP DP  RH WIND       PRES   REMARKS
OMAHA EPPLEY   PTCLDY    74  67  78 S12       29.82R
BLAIR          MOCLDY    73  67  81 S10       29.82R
FREMONT        PTCLDY    75  66  74 W7        29.83R THUNDER
MILLARD        CLEAR     73  68  83 S6        29.82R
OFFUTT AFB     CLEAR     72  71  99 S6        29.83R
PLATTSMOUTH    CLEAR     70  66  87 S10       29.84R
WAHOO          FAIR      74  65  71 SW10      29.82R
$$



USA.gov is the U.S. government's official web portal to all federal, state and local government web resources and services.